Location: Asheville, NC
(35.6000°N, 82.5500°W)
Time: 23:39:56
(UTC-04:00)

SRMSAT - Pass Details

Date: 07 January 2018
Orbit: 848 x 866 km, 20.0° (Epoch: 19 June)

Event Time Altitude Azimuth Distance (km) Brightness Sun altitude
Rises 20:36:24 0° 233° (SW) 3,414 ? -36.6°
Reaches altitude 10° 20:39:56 10° 212° (SSW) 2,474 ? -37.3°
Enters shadow 20:40:56 13° 204° (SSW) 2,284 ? -37.5°
